﻿測定場所 (Monitoring sites),日付 (Measurement date),時間 (Measurement time),線量率 最大値 (max) μGy/h,線量率 最小値 (min) μGy/h,線量率 平均値 (average) μGy/h,
江戸川 (Edogawa),2022-09-11,23:01～24:00,0.0447,0.0369,0.0403,
江戸川 (Edogawa),2022-09-11,22:01～23:00,0.0436,0.0377,0.0404,
江戸川 (Edogawa),2022-09-11,21:01～22:00,0.0436,0.0370,0.0408,
江戸川 (Edogawa),2022-09-11,20:01～21:00,0.0437,0.0368,0.0406,
江戸川 (Edogawa),2022-09-11,19:01～20:00,0.0425,0.0373,0.0403,
江戸川 (Edogawa),2022-09-11,18:01～19:00,0.0436,0.0370,0.0406,
江戸川 (Edogawa),2022-09-11,17:01～18:00,0.0431,0.0378,0.0404,
江戸川 (Edogawa),2022-09-11,16:01～17:00,0.0422,0.0372,0.0397,
江戸川 (Edogawa),2022-09-11,15:01～16:00,0.0426,0.0369,0.0399,
江戸川 (Edogawa),2022-09-11,14:01～15:00,0.0430,0.0370,0.0402,
江戸川 (Edogawa),2022-09-11,13:01～14:00,0.0426,0.0376,0.0404,
江戸川 (Edogawa),2022-09-11,12:01～13:00,0.0430,0.0373,0.0405,
江戸川 (Edogawa),2022-09-11,11:01～12:00,0.0440,0.0376,0.0404,
江戸川 (Edogawa),2022-09-11,10:01～11:00,0.0431,0.0375,0.0401,
江戸川 (Edogawa),2022-09-11,09:01～10:00,0.0436,0.0383,0.0409,
江戸川 (Edogawa),2022-09-11,08:01～09:00,0.0440,0.0374,0.0408,
江戸川 (Edogawa),2022-09-11,07:01～08:00,0.0454,0.0391,0.0412,
江戸川 (Edogawa),2022-09-11,06:01～07:00,0.0433,0.0384,0.0410,
江戸川 (Edogawa),2022-09-11,05:01～06:00,0.0450,0.0376,0.0411,
江戸川 (Edogawa),2022-09-11,04:01～05:00,0.0441,0.0381,0.0412,
江戸川 (Edogawa),2022-09-11,03:01～04:00,0.0438,0.0387,0.0413,
江戸川 (Edogawa),2022-09-11,02:01～03:00,0.0442,0.0386,0.0419,
江戸川 (Edogawa),2022-09-11,01:01～02:00,0.0448,0.0390,0.0415,
江戸川 (Edogawa),2022-09-11,00:01～01:00,0.0444,0.0382,0.0414,
江戸川 (Edogawa),2022-09-10,23:01～24:00,0.0451,0.0382,0.0407,
江戸川 (Edogawa),2022-09-10,22:01～23:00,0.0436,0.0367,0.0409,
江戸川 (Edogawa),2022-09-10,21:01～22:00,0.0443,0.0385,0.0410,
江戸川 (Edogawa),2022-09-10,20:01～21:00,0.0447,0.0386,0.0413,
江戸川 (Edogawa),2022-09-10,19:01～20:00,0.0439,0.0375,0.0413,
江戸川 (Edogawa),2022-09-10,18:01～19:00,0.0443,0.0374,0.0408,
江戸川 (Edogawa),2022-09-10,17:01～18:00,0.0436,0.0369,0.0406,
江戸川 (Edogawa),2022-09-10,16:01～17:00,0.0435,0.0378,0.0409,
江戸川 (Edogawa),2022-09-10,15:01～16:00,0.0437,0.0381,0.0412,
江戸川 (Edogawa),2022-09-10,14:01～15:00,0.0451,0.0373,0.0407,
江戸川 (Edogawa),2022-09-10,13:01～14:00,0.0437,0.0370,0.0408,
江戸川 (Edogawa),2022-09-10,12:01～13:00,0.0436,0.0380,0.0408,
江戸川 (Edogawa),2022-09-10,11:01～12:00,0.0436,0.0369,0.0408,
江戸川 (Edogawa),2022-09-10,10:01～11:00,0.0432,0.0383,0.0406,
江戸川 (Edogawa),2022-09-10,09:01～10:00,0.0446,0.0369,0.0402,
江戸川 (Edogawa),2022-09-10,08:01～09:00,0.0431,0.0374,0.0401,
江戸川 (Edogawa),2022-09-10,07:01～08:00,0.0448,0.0369,0.0404,
江戸川 (Edogawa),2022-09-10,06:01～07:00,0.0430,0.0367,0.0404,
江戸川 (Edogawa),2022-09-10,05:01～06:00,0.0434,0.0367,0.0401,
江戸川 (Edogawa),2022-09-10,04:01～05:00,0.0441,0.0371,0.0401,
江戸川 (Edogawa),2022-09-10,03:01～04:00,0.0433,0.0368,0.0398,
江戸川 (Edogawa),2022-09-10,02:01～03:00,0.0423,0.0364,0.0398,
江戸川 (Edogawa),2022-09-10,01:01～02:00,0.0426,0.0375,0.0402,
江戸川 (Edogawa),2022-09-10,00:01～01:00,0.0444,0.0377,0.0401,
江戸川 (Edogawa),2022-09-09,23:01～24:00,0.0433,0.0371,0.0402,
江戸川 (Edogawa),2022-09-09,22:01～23:00,0.0419,0.0366,0.0398,
江戸川 (Edogawa),2022-09-09,21:01～22:00,0.0432,0.0373,0.0401,
江戸川 (Edogawa),2022-09-09,20:01～21:00,0.0429,0.0367,0.0398,
江戸川 (Edogawa),2022-09-09,19:01～20:00,0.0431,0.0369,0.0396,
江戸川 (Edogawa),2022-09-09,18:01～19:00,0.0429,0.0374,0.0398,
江戸川 (Edogawa),2022-09-09,17:01～18:00,0.0421,0.0371,0.0394,
江戸川 (Edogawa),2022-09-09,16:01～17:00,0.0428,0.0366,0.0398,
江戸川 (Edogawa),2022-09-09,15:01～16:00,0.0435,0.0379,0.0402,
江戸川 (Edogawa),2022-09-09,14:01～15:00,0.0428,0.0366,0.0399,
江戸川 (Edogawa),2022-09-09,13:01～14:00,0.0434,0.0375,0.0401,
江戸川 (Edogawa),2022-09-09,12:01～13:00,0.0446,0.0383,0.0413,
江戸川 (Edogawa),2022-09-09,11:01～12:00,0.0473,0.0388,0.0434,
江戸川 (Edogawa),2022-09-09,10:01～11:00,0.0443,0.0374,0.0413,
江戸川 (Edogawa),2022-09-09,09:01～10:00,0.0439,0.0370,0.0405,
江戸川 (Edogawa),2022-09-09,08:01～09:00,0.0444,0.0376,0.0409,
江戸川 (Edogawa),2022-09-09,07:01～08:00,0.0456,0.0399,0.0421,
江戸川 (Edogawa),2022-09-09,06:01～07:00,0.0432,0.0388,0.0410,
江戸川 (Edogawa),2022-09-09,05:01～06:00,0.0428,0.0367,0.0401,
江戸川 (Edogawa),2022-09-09,04:01～05:00,0.0435,0.0373,0.0408,
江戸川 (Edogawa),2022-09-09,03:01～04:00,0.0452,0.0375,0.0408,
江戸川 (Edogawa),2022-09-09,02:01～03:00,0.0438,0.0381,0.0412,
江戸川 (Edogawa),2022-09-09,01:01～02:00,0.0436,0.0376,0.0408,
江戸川 (Edogawa),2022-09-09,00:01～01:00,0.0434,0.0375,0.0405,
江戸川 (Edogawa),2022-09-08,23:01～24:00,0.0431,0.0372,0.0407,
江戸川 (Edogawa),2022-09-08,22:01～23:00,0.0436,0.0380,0.0409,
江戸川 (Edogawa),2022-09-08,21:01～22:00,0.0421,0.0369,0.0397,
江戸川 (Edogawa),2022-09-08,20:01～21:00,0.0432,0.0376,0.0399,
江戸川 (Edogawa),2022-09-08,19:01～20:00,0.0445,0.0362,0.0403,
江戸川 (Edogawa),2022-09-08,18:01～19:00,0.0449,0.0365,0.0400,
江戸川 (Edogawa),2022-09-08,17:01～18:00,0.0422,0.0365,0.0398,
江戸川 (Edogawa),2022-09-08,16:01～17:00,0.0428,0.0361,0.0395,
江戸川 (Edogawa),2022-09-08,15:01～16:00,0.0436,0.0367,0.0395,
江戸川 (Edogawa),2022-09-08,14:01～15:00,0.0427,0.0372,0.0399,
江戸川 (Edogawa),2022-09-08,13:01～14:00,0.0430,0.0369,0.0395,
江戸川 (Edogawa),2022-09-08,12:01～13:00,0.0421,0.0364,0.0392,
江戸川 (Edogawa),2022-09-08,11:01～12:00,0.0429,0.0366,0.0397,
江戸川 (Edogawa),2022-09-08,10:01～11:00,0.0429,0.0368,0.0395,
江戸川 (Edogawa),2022-09-08,09:01～10:00,0.0426,0.0372,0.0394,
江戸川 (Edogawa),2022-09-08,08:01～09:00,0.0418,0.0365,0.0395,
江戸川 (Edogawa),2022-09-08,07:01～08:00,0.0423,0.0369,0.0397,
江戸川 (Edogawa),2022-09-08,06:01～07:00,0.0435,0.0378,0.0405,
江戸川 (Edogawa),2022-09-08,05:01～06:00,0.0472,0.0390,0.0439,
江戸川 (Edogawa),2022-09-08,04:01～05:00,0.0580,0.0452,0.0513,
江戸川 (Edogawa),2022-09-08,03:01～04:00,0.0557,0.0441,0.0501,
江戸川 (Edogawa),2022-09-08,02:01～03:00,0.0484,0.0380,0.0439,
江戸川 (Edogawa),2022-09-08,01:01～02:00,0.0433,0.0371,0.0402,
江戸川 (Edogawa),2022-09-08,00:01～01:00,0.0440,0.0378,0.0409,
江戸川 (Edogawa),2022-09-07,23:01～24:00,0.0444,0.0385,0.0414,
江戸川 (Edogawa),2022-09-07,22:01～23:00,0.0427,0.0370,0.0401,
江戸川 (Edogawa),2022-09-07,21:01～22:00,0.0436,0.0381,0.0405,
江戸川 (Edogawa),2022-09-07,20:01～21:00,0.0439,0.0368,0.0401,
江戸川 (Edogawa),2022-09-07,19:01～20:00,0.0446,0.0373,0.0411,
江戸川 (Edogawa),2022-09-07,18:01～19:00,0.0445,0.0380,0.0412,
江戸川 (Edogawa),2022-09-07,17:01～18:00,0.0461,0.0405,0.0431,
江戸川 (Edogawa),2022-09-07,16:01～17:00,0.0446,0.0389,0.0422,
江戸川 (Edogawa),2022-09-07,15:01～16:00,0.0431,0.0374,0.0405,
江戸川 (Edogawa),2022-09-07,14:01～15:00,0.0440,0.0380,0.0409,
江戸川 (Edogawa),2022-09-07,13:01～14:00,0.0434,0.0367,0.0404,
江戸川 (Edogawa),2022-09-07,12:01～13:00,0.0435,0.0371,0.0403,
江戸川 (Edogawa),2022-09-07,11:01～12:00,0.0449,0.0372,0.0407,
江戸川 (Edogawa),2022-09-07,10:01～11:00,0.0448,0.0378,0.0403,
江戸川 (Edogawa),2022-09-07,09:01～10:00,0.0439,0.0379,0.0407,
江戸川 (Edogawa),2022-09-07,08:01～09:00,0.0434,0.0375,0.0407,
江戸川 (Edogawa),2022-09-07,07:01～08:00,0.0432,0.0381,0.0407,
江戸川 (Edogawa),2022-09-07,06:01～07:00,0.0437,0.0371,0.0404,
江戸川 (Edogawa),2022-09-07,05:01～06:00,0.0443,0.0374,0.0409,
江戸川 (Edogawa),2022-09-07,04:01～05:00,0.0438,0.0377,0.0408,
江戸川 (Edogawa),2022-09-07,03:01～04:00,0.0436,0.0375,0.0406,
江戸川 (Edogawa),2022-09-07,02:01～03:00,0.0430,0.0372,0.0406,
江戸川 (Edogawa),2022-09-07,01:01～02:00,0.0441,0.0371,0.0406,
江戸川 (Edogawa),2022-09-07,00:01～01:00,0.0436,0.0373,0.0406,
江戸川 (Edogawa),2022-09-06,23:01～24:00,0.0432,0.0376,0.0405,
江戸川 (Edogawa),2022-09-06,22:01～23:00,0.0434,0.0375,0.0406,
江戸川 (Edogawa),2022-09-06,21:01～22:00,0.0434,0.0369,0.0404,
江戸川 (Edogawa),2022-09-06,20:01～21:00,0.0441,0.0376,0.0406,
江戸川 (Edogawa),2022-09-06,19:01～20:00,0.0430,0.0375,0.0403,
江戸川 (Edogawa),2022-09-06,18:01～19:00,0.0438,0.0367,0.0407,
江戸川 (Edogawa),2022-09-06,17:01～18:00,0.0432,0.0374,0.0405,
江戸川 (Edogawa),2022-09-06,16:01～17:00,0.0433,0.0369,0.0404,
江戸川 (Edogawa),2022-09-06,15:01～16:00,0.0440,0.0372,0.0405,
江戸川 (Edogawa),2022-09-06,14:01～15:00,0.0433,0.0369,0.0405,
江戸川 (Edogawa),2022-09-06,13:01～14:00,0.0436,0.0377,0.0403,
江戸川 (Edogawa),2022-09-06,12:01～13:00,0.0436,0.0375,0.0405,
江戸川 (Edogawa),2022-09-06,11:01～12:00,0.0431,0.0370,0.0402,
江戸川 (Edogawa),2022-09-06,10:01～11:00,0.0437,0.0373,0.0402,
江戸川 (Edogawa),2022-09-06,09:01～10:00,0.0449,0.0373,0.0404,
江戸川 (Edogawa),2022-09-06,08:01～09:00,0.0444,0.0377,0.0405,
江戸川 (Edogawa),2022-09-06,07:01～08:00,0.0434,0.0372,0.0407,
江戸川 (Edogawa),2022-09-06,06:01～07:00,0.0442,0.0372,0.0406,
江戸川 (Edogawa),2022-09-06,05:01～06:00,0.0439,0.0380,0.0409,
江戸川 (Edogawa),2022-09-06,04:01～05:00,0.0451,0.0380,0.0412,
江戸川 (Edogawa),2022-09-06,03:01～04:00,0.0441,0.0382,0.0411,
江戸川 (Edogawa),2022-09-06,02:01～03:00,0.0436,0.0375,0.0409,
江戸川 (Edogawa),2022-09-06,01:01～02:00,0.0432,0.0379,0.0408,
江戸川 (Edogawa),2022-09-06,00:01～01:00,0.0448,0.0370,0.0404,
江戸川 (Edogawa),2022-09-05,23:01～24:00,0.0433,0.0376,0.0404,
江戸川 (Edogawa),2022-09-05,22:01～23:00,0.0434,0.0368,0.0403,
江戸川 (Edogawa),2022-09-05,21:01～22:00,0.0435,0.0372,0.0405,
江戸川 (Edogawa),2022-09-05,20:01～21:00,0.0430,0.0376,0.0405,
江戸川 (Edogawa),2022-09-05,19:01～20:00,0.0435,0.0371,0.0407,
江戸川 (Edogawa),2022-09-05,18:01～19:00,0.0430,0.0374,0.0403,
江戸川 (Edogawa),2022-09-05,17:01～18:00,0.0435,0.0370,0.0398,
江戸川 (Edogawa),2022-09-05,16:01～17:00,0.0429,0.0368,0.0403,
江戸川 (Edogawa),2022-09-05,15:01～16:00,0.0453,0.0370,0.0403,
江戸川 (Edogawa),2022-09-05,14:01～15:00,0.0435,0.0370,0.0403,
江戸川 (Edogawa),2022-09-05,13:01～14:00,0.0442,0.0372,0.0402,
江戸川 (Edogawa),2022-09-05,12:01～13:00,0.0424,0.0372,0.0400,
江戸川 (Edogawa),2022-09-05,11:01～12:00,0.0430,0.0369,0.0403,
江戸川 (Edogawa),2022-09-05,10:01～11:00,0.0435,0.0367,0.0400,
江戸川 (Edogawa),2022-09-05,09:01～10:00,0.0436,0.0378,0.0400,
江戸川 (Edogawa),2022-09-05,08:01～09:00,0.0437,0.0364,0.0402,
江戸川 (Edogawa),2022-09-05,07:01～08:00,0.0447,0.0372,0.0404,
江戸川 (Edogawa),2022-09-05,06:01～07:00,0.0435,0.0374,0.0406,
江戸川 (Edogawa),2022-09-05,05:01～06:00,0.0432,0.0375,0.0402,
江戸川 (Edogawa),2022-09-05,04:01～05:00,0.0429,0.0369,0.0400,
江戸川 (Edogawa),2022-09-05,03:01～04:00,0.0439,0.0367,0.0400,
江戸川 (Edogawa),2022-09-05,02:01～03:00,0.0422,0.0371,0.0402,
江戸川 (Edogawa),2022-09-05,01:01～02:00,0.0431,0.0377,0.0401,
江戸川 (Edogawa),2022-09-05,00:01～01:00,0.0434,0.0368,0.0402,
